User: anonymous   Login
Location: Santa Barbara
(34.4500°N, 119.7700°W)
Time: 11:51:45
(UTC-08:00)
Language:

Cosmos 1626 Rocket - Orbit

View from above orbital plane
View from above orbital plane
View from above satellite
View from above satellite

Ground track
Ground track

The orbit data is extracted from the following two-line orbital elements,

1 15495U 85009B   16336.65027047  .00000109  00000-0  10277-4 0  9997
2 15495  82.5249  12.4985 0018619 261.1859  98.7248 14.83743595720671
Epoch (UTC): 01 December 2016 15:36:23
Eccentricity: 0.0018619
inclination: 82.5249°
perigee height: 604 km
apogee height: 630 km
right ascension of ascending node: 12.4985°
argument of perigee: 261.1859°
revolutions per day: 14.83743595
mean anomaly at epoch: 98.7248°
orbit number at epoch: 72067

The dashed part of the orbit path shows where the satellite is in the earth's shadow,  

DLR